Flag for Colombia Weather past 2 weeks in Bogota, Colombia

Now
64 °F

Scattered showers. Partly sunny.


Feels Like: 64 °F
Forecast: 48 / 65 °F
Wind: 9 mph from Southeast

Location: Bogota / Eldorado

Current Time: Aug 31, 2015 at 1:13:29 PM

Latest Report: Aug 31, 2015 at 1:00 PM


Visibility: N/A

Pressure: 30.37 "Hg (22.34 "Hg at 2618m altitude)

Humidity: 49%

Dew point: 45 °F

Location of BogotaLocation

Historic Weather in Bogota — Graph

°F

Bogota temperature yesterday

Maximum temperature yesterday: 66 °F (at 1:00 PM)
Minimum temperature yesterday: 45 °F (at 5:00 AM)
Average temperature yesterday: 57 °F

Past Weeks' High & Low Weather Summary

 TemperatureHumidityPressure
High84 °F (Aug 18, 6:00 PM)100% (Aug 18, 6:00 AM)30.43 "Hg (Aug 18, 6:00 AM)
Low45 °F (Aug 30, 5:00 AM)37% (Aug 29, 4:00 PM)29.93 "Hg (Aug 18, 6:00 PM)
Average58 °F70%30.34 "Hg
* Reported Aug 16 12:00 Noon — Aug 31 12:00 Noon, Bogota, Weather by CustomWeather, © 2015

Note: Actual official high and low records may vary slightly from our data, if they occured in-between our weather recording intervals... More about our weather records

Advertising

Bogota weather history for previous 24 hours

 ConditionsComfort  
Time TempWeatherWind HumidityBarometerVisibility
12:00 PM
Mon, Aug 31
63 °FScattered showers. Broken clouds.16 mph52%30.40 "Hg5 mi
11:00 AM63 °FScattered showers. Scattered clouds.15 mph56%30.41 "HgN/A
10:00 AM63 °FScattered showers. Partly sunny.10 mph52%30.41 "HgN/A
9:00 AM61 °FScattered showers. Broken clouds.10 mph59%30.40 "Hg5 mi
8:00 AM59 °FPartly sunny.10 mph59%30.39 "HgN/A
7:00 AM57 °FOvercast.5 mph63%30.37 "HgN/A
6:00 AM52 °FPartly sunny.2 mph82%30.36 "HgN/A
5:00 AM52 °FPassing clouds.3 mph82%30.35 "HgN/A
4:00 AM52 °FPassing clouds.No wind82%30.35 "HgN/A
3:00 AM54 °FPassing clouds.3 mph77%30.36 "HgN/A
2:00 AM55 °FCool.N/A72%30.38 "HgN/A
1:00 AM57 °FPassing clouds.8 mph67%30.39 "HgN/A
12:00 AM57 °FPassing clouds.7 mph67%30.40 "HgN/A
11:00 PM
Sun, Aug 30
55 °FPassing clouds.2 mph72%30.40 "HgN/A
10:00 PM55 °FPassing clouds.7 mph67%30.41 "HgN/A
9:00 PM57 °FPassing clouds.6 mph63%30.40 "HgN/A
8:00 PM59 °FPassing clouds.9 mph59%30.37 "HgN/A
7:00 PM59 °FPassing clouds.12 mph59%30.33 "HgN/A
6:00 PM61 °FScattered showers. Partly sunny.14 mph55%30.32 "HgN/A
4:00 PM64 °FScattered clouds.9 mph46%30.31 "HgN/A
3:00 PM66 °FPartly sunny.17 mph43%30.32 "HgN/A
2:00 PM64 °FPartly sunny.7 mph46%30.35 "HgN/A
1:00 PM66 °FPartly sunny.12 mph43%30.37 "HgN/A
Weather by CustomWeather, © 2015

See weather overviewHow to use our weather pages